TimeCDT,TemperatureF,Dew PointF,Humidity,Sea Level PressureIn,VisibilityMPH,Wind Direction,Wind SpeedMPH,Gust SpeedMPH,PrecipitationIn,Events,Conditions,WindDirDegrees,DateUTC
12:53 AM,71.1,66.9,87,30.14,10.0,Calm,Calm,-,N/A,,Clear,0,2013-07-18 05:53:00
1:53 AM,71.1,66.9,87,30.13,10.0,Calm,Calm,-,N/A,,Clear,0,2013-07-18 06:53:00
2:53 AM,69.1,66.9,93,30.12,9.0,Calm,Calm,-,N/A,,Clear,0,2013-07-18 07:53:00
3:53 AM,71.1,66.9,87,30.12,10.0,SSW,5.8,-,N/A,,Mostly Cloudy,210,2013-07-18 08:53:00
4:53 AM,71.1,66.0,84,30.09,10.0,SW,4.6,-,N/A,,Clear,220,2013-07-18 09:53:00
5:53 AM,71.1,66.9,87,30.08,10.0,SW,6.9,-,N/A,,Clear,230,2013-07-18 10:53:00
6:53 AM,71.1,66.9,87,30.07,10.0,SSW,5.8,-,N/A,,Clear,210,2013-07-18 11:53:00
7:53 AM,75.9,68.0,76,30.06,10.0,SW,6.9,-,N/A,,Clear,230,2013-07-18 12:53:00
8:53 AM,81.0,69.1,67,30.05,10.0,WSW,10.4,-,N/A,,Clear,240,2013-07-18 13:53:00
9:53 AM,84.0,69.1,61,30.04,10.0,WSW,9.2,17.3,N/A,,Clear,250,2013-07-18 14:53:00
10:53 AM,87.1,68.0,53,30.02,10.0,SW,11.5,19.6,N/A,,Clear,230,2013-07-18 15:53:00
11:53 AM,89.1,66.9,48,29.99,10.0,WSW,15.0,24.2,N/A,,Partly Cloudy,250,2013-07-18 16:53:00
12:53 PM,88.0,66.9,49,29.98,10.0,WSW,10.4,20.7,N/A,,Mostly Cloudy,240,2013-07-18 17:53:00
1:53 PM,90.0,66.9,46,29.94,10.0,WSW,11.5,19.6,N/A,,Scattered Clouds,240,2013-07-18 18:53:00
2:53 PM,89.1,66.9,48,29.91,10.0,SW,15.0,24.2,N/A,,Scattered Clouds,220,2013-07-18 19:53:00
3:53 PM,89.1,68.0,50,29.89,10.0,SW,16.1,27.6,N/A,,Mostly Cloudy,230,2013-07-18 20:53:00
4:53 PM,84.9,72.0,65,29.88,10.0,SW,12.7,-,0.02,,Partly Cloudy,230,2013-07-18 21:53:00
5:53 PM,86.0,68.0,55,29.85,10.0,SW,11.5,-,N/A,,Partly Cloudy,230,2013-07-18 22:53:00
6:53 PM,86.0,66.9,53,29.81,10.0,SW,15.0,23.0,N/A,,Clear,230,2013-07-18 23:53:00
7:53 PM,82.9,66.9,58,29.80,10.0,SW,11.5,-,N/A,,Clear,230,2013-07-19 00:53:00
8:53 PM,82.0,66.9,60,29.81,10.0,SW,11.5,-,N/A,,Clear,230,2013-07-19 01:53:00
9:53 PM,81.0,66.0,60,29.81,10.0,SW,8.1,-,N/A,,Scattered Clouds,230,2013-07-19 02:53:00
10:53 PM,79.0,66.9,66,29.80,10.0,SW,9.2,-,N/A,,Mostly Cloudy,220,2013-07-19 03:53:00
11:53 PM,78.1,66.9,68,29.77,10.0,SW,10.4,19.6,N/A,,Scattered Clouds,230,2013-07-19 04:53:00